Hourly Data Report for October 03, 2017

All times are specified in Local Standard Time (LST). Add 1 hour to adjust for Daylight Saving Time where and when it is observed.

SMITHERS
BRITISH COLUMBIA

54°49'31.000" N
127°10'58.000" W
523.00 m
1077499
71950
YYD

Download Data

Hourly Data (October 2017)
Hourly Data Report for October 3, 2017
Temp Definition
°C
Dew Point Temp Definition
°C
Rel Hum Definition
%
Wind Dir Definition
10's deg

Wind Spd Definition
km/h
Visibility Definition
km
Stn Press Definition
kPa
Hmdx Definition


Wind Chill Definition


Weather Definition


TIME
00:00 Legend Double Dagger -0.8 -1.1 98 15 15 16.1 96.78   -5 LegendNANA
01:00 Legend Double Dagger -1.2 -1.8 96 LegendMM 4 16.1 96.79   -3 LegendNANA
02:00 Legend Double Dagger -2.1 -2.4 98 LegendMM 4 16.1 96.77   -4 LegendNANA
03:00 Legend Double Dagger -3.3 -3.3 100   0 16.1 96.77     LegendNANA
04:00 Legend Double Dagger -3.7 -3.7 100 LegendMM 4 4.0 96.75   -5 Fog
05:00 Legend Double Dagger -3.1 -3.2 99   0 16.1 96.76     LegendNANA
06:00 Legend Double Dagger -3.5 -3.5 100   0 0.4 96.76     Freezing Fog
07:00 Legend Double Dagger -3.8 -3.9 99   0 16.1 96.78     LegendNANA
08:00 Legend Double Dagger -2.1 -2.4 98 14 9 16.1 96.77   -6 LegendNANA
09:00 Legend Double Dagger -0.2 -0.8 96 14 9 16.1 96.75   -3 LegendNANA
10:00 Legend Double Dagger 2.3 -0.6 81 15 9 16.1 96.71     LegendNANA
11:00 Legend Double Dagger 4.1 -0.2 74 15 9 16.1 96.66     LegendNANA
12:00 Legend Double Dagger 6.3 -0.9 60 11 8 16.1 96.63     LegendNANA
13:00 Legend Double Dagger 7.8 -0.7 55 13 5 16.1 96.61     LegendNANA
14:00 Legend Double Dagger 9.6 -0.3 50 LegendMM 5 16.1 96.58     LegendNANA
15:00 Legend Double Dagger 10.7 -1.6 42 LegendMM 5 16.1 96.54     LegendNANA
16:00 Legend Double Dagger 10.8 -1.8 41   0 16.1 96.50     LegendNANA
17:00 Legend Double Dagger 9.8 2.7 61 26 5 16.1 96.46     LegendNANA
18:00 Legend Double Dagger 6.8 2.3 73 30 4 16.1 96.45     LegendNANA
19:00 Legend Double Dagger 4.6 2.2 85 LegendMM 4 16.1 96.45     LegendNANA
20:00 Legend Double Dagger 2.9 1.4 90 29 4 16.1 96.46     LegendNANA
21:00 Legend Double Dagger 2.1 1.1 93 18 4 16.1 96.47     LegendNANA
22:00 Legend Double Dagger 1.8 1.1 95   0 16.1 96.47     LegendNANA
23:00 Legend Double Dagger 0.7 0.6 99   0 16.1 96.46     LegendNANA

Notes on Data Quality.

Legend

  • E = Estimated
  • M = Missing
  • NA = Not Available
  • ‡ = Partner data that is not subject to review by the National Climate Archives
Date modified: